Retour au catalogue

DELTA 1 DEB

ActifSSO
NORAD 9977·DEBRIS·🇺🇸 United States

Lancé Nov 6, 1973 depuis Vandenberg Space Force Base

Loading…

Prochains Passages (prochaines 24 heures)

TLE

FraisSource: Space-Track

Époque: Sep 12, 2026, 04:40 UTC

1 09977U 73086GG  26255.19475032  .00000060  00000-0  64940-3 0  9999
2 09977 101.8855 342.5309 0070004  20.2519  11.4148 12.54386802334466

Suivez DELTA 1 DEB en temps réel avec AllMySat

Download on the App Store